Location: Unspecified
(0.0000°N, 0.0000°E)
Time: 23:28:46
(UTC+00:00)

A-11 Canister half - Pass Details

Date: 15 February 2023
Orbit: 1526 x 1682 km, 47.3° (Epoch: 29 March)

Event Time Altitude Azimuth Distance (km) Brightness Sun altitude
Rises 00:15:45 0° 232° (SW) 4,839 - -77.2°
Reaches altitude 10° 00:19:02 10° 237° (WSW) 3,830 - -77.1°
Maximum altitude 00:28:18 50° 309° (NW) 1,925 - -76.7°
Drops below altitude 10° 00:37:18 10° 23° (NNE) 3,711 - -75.9°
Sets 00:40:28 0° 28° (NNE) 4,679 - -75.6°
